| time (UTC) | temp C | wind direction | speed KPH | gust KPH | rain 1hr cm | rain 24hr cm | rain mn cm | humidity % | barometer mb |
| 20260508025347 | 7 | 73 | 0.0 | 0.0 | 0.00 | 0.46 | 0.46 | 58 | 1002.1 |
| 20260508024844 | 7 | 73 | 0.0 | 0.0 | 0.00 | 0.46 | 0.46 | 54 | 1002.0 |
| 20260508024340 | 7 | 73 | 0.0 | 0.0 | 0.00 | 0.46 | 0.46 | 54 | 1002.1 |
| 20260508023832 | 7 | 73 | 0.0 | 0.0 | 0.00 | 0.46 | 0.46 | 53 | 1002.0 |
| 20260508023328 | 8 | 73 | 0.0 | 0.0 | 0.00 | 0.46 | 0.46 | 49 | 1001.9 |
| 20260508022825 | 8 | 75 | 0.0 | 0.0 | 0.00 | 0.46 | 0.46 | 48 | 1001.9 |
| 20260508022321 | 8 | 75 | 0.0 | 0.0 | 0.00 | 0.46 | 0.46 | 47 | 1001.6 |
| 20260508021818 | 8 | 59 | 0.0 | 0.0 | 0.00 | 0.46 | 0.46 | 49 | 1001.8 |
| 20260508021314 | 8 | 46 | 1.6 | 1.6 | 0.00 | 0.46 | 0.46 | 49 | 1001.8 |
| 20260508020810 | 8 | 65 | 0.0 | 0.0 | 0.00 | 0.46 | 0.46 | 48 | 1001.7 |
| 20260508020308 | 8 | 62 | 0.0 | 1.6 | 0.00 | 0.46 | 0.46 | 51 | 1001.9 |
| 20260508015805 | 8 | 20 | 1.6 | 1.6 | 0.00 | 0.46 | 0.46 | 48 | 1001.6 |
| 20260508015305 | 8 | 55 | 1.6 | 1.6 | 0.00 | 0.46 | 0.46 | 49 | 1001.7 |
| 20260508014759 | 9 | 60 | 0.0 | 0.0 | 0.00 | 0.46 | 0.46 | 46 | 1001.5 |
| 20260508014256 | 8 | 74 | 1.6 | 1.6 | 0.00 | 0.46 | 0.46 | 47 | 1001.5 |
| 20260508013751 | 9 | 76 | 0.0 | 0.0 | 0.00 | 0.46 | 0.46 | 50 | 1001.7 |
| 20260508013248 | 9 | 73 | 0.0 | 1.6 | 0.00 | 0.46 | 0.46 | 48 | 1001.4 |
| 20260508012746 | 9 | 71 | 0.0 | 1.6 | 0.00 | 0.46 | 0.46 | 50 | 1001.7 |
| 20260508012242 | 9 | 52 | 0.0 | 1.6 | 0.00 | 0.46 | 0.46 | 49 | 1001.6 |
| 20260508011741 | 9 | 62 | 0.0 | 0.0 | 0.00 | 0.46 | 0.46 | 52 | 1001.5 |
| 20260508011238 | 10 | 91 | 1.6 | 1.6 | 0.00 | 0.46 | 0.46 | 47 | 1001.5 |
| 20260508010735 | 10 | 54 | 0.0 | 0.0 | 0.00 | 0.46 | 0.46 | 47 | 1001.4 |
| 20260508010233 | 10 | 57 | 0.0 | 0.0 | 0.00 | 0.46 | 0.46 | 48 | 1001.4 |
| 20260508005729 | 10 | 41 | 1.6 | 1.6 | 0.00 | 0.46 | 0.46 | 46 | 1001.3 |
| 20260508005226 | 10 | 77 | 1.6 | 1.6 | 0.00 | 0.46 | 0.46 | 49 | 1001.3 |
| 20260508004722 | 10 | 81 | 0.0 | 1.6 | 0.00 | 0.46 | 0.46 | 51 | 1001.1 |
| 20260508004218 | 10 | 64 | 0.0 | 0.0 | 0.00 | 0.46 | 0.46 | 48 | 1001.1 |
| 20260508003715 | 10 | 70 | 0.0 | 0.0 | 0.00 | 0.46 | 0.46 | 51 | 1001.1 |
| 20260508003213 | 10 | 55 | 0.0 | 0.0 | 0.00 | 0.46 | 0.46 | 51 | 1000.8 |
| 20260508002709 | 10 | 72 | 0.0 | 0.0 | 0.00 | 0.46 | 0.46 | 50 | 1000.9 |
| 20260508002207 | 10 | 49 | 0.0 | 0.0 | 0.00 | 0.46 | 0.46 | 50 | 1000.6 |
| 20260508001702 | 10 | 83 | 0.0 | 0.0 | 0.00 | 0.46 | 0.46 | 48 | 1000.8 |
| 20260508001158 | 11 | 66 | 0.0 | 1.6 | 0.00 | 0.46 | 0.46 | 47 | 1000.6 |
| 20260508000654 | 11 | 50 | 0.0 | 0.0 | 0.00 | 0.46 | 0.46 | 49 | 1000.6 |
| 20260508000151 | 11 | 48 | 0.0 | 1.6 | 0.00 | 0.46 | 0.46 | 48 | 1000.6 |
| 20260507235648 | 11 | 46 | 0.0 | 0.0 | 0.00 | 0.46 | 0.46 | 46 | 1000.5 |
| 20260507235145 | 11 | 45 | 0.0 | 0.0 | 0.00 | 0.46 | 0.46 | 46 | 1000.5 |
| 20260507234642 | 11 | 49 | 1.6 | 1.6 | 0.00 | 0.46 | 0.46 | 43 | 1000.1 |
| 20260507234138 | 12 | 43 | 1.6 | 1.6 | 0.00 | 0.46 | 0.46 | 43 | 1000.4 |
| 20260507233635 | 12 | 43 | 1.6 | 3.2 | 0.00 | 0.46 | 0.46 | 43 | 1000.1 |
| 20260507233134 | 12 | 327 | 0.0 | 3.2 | 0.00 | 0.46 | 0.46 | 44 | 1000.2 |
| 20260507232630 | 12 | 6 | 3.2 | 3.2 | 0.00 | 0.46 | 0.46 | 41 | 1000.2 |
| 20260507232127 | 12 | 29 | 1.6 | 1.6 | 0.00 | 0.46 | 0.46 | 40 | 1000.0 |
| 20260507231623 | 13 | 38 | 1.6 | 1.6 | 0.00 | 0.46 | 0.46 | 42 | 999.9 |
| 20260507231121 | 13 | 272 | 4.8 | 4.8 | 0.00 | 0.46 | 0.46 | 41 | 999.9 |
| 20260507230617 | 13 | 43 | 1.6 | 1.6 | 0.00 | 0.46 | 0.46 | 38 | 999.9 |
| 20260507230114 | 13 | 352 | 3.2 | 3.2 | 0.00 | 0.46 | 0.46 | 39 | 999.6 |
| 20260507225609 | 13 | 4 | 3.2 | 4.8 | 0.00 | 0.46 | 0.46 | 40 | 999.3 |
| 20260507225106 | 13 | 25 | 1.6 | 1.6 | 0.00 | 0.46 | 0.46 | 39 | 999.6 |
| 20260507224601 | 14 | 329 | 6.4 | 6.4 | 0.00 | 0.46 | 0.46 | 38 | 999.4 |
| 20260507224058 | 14 | 50 | 0.0 | 0.0 | 0.00 | 0.46 | 0.46 | 38 | 999.3 |
| 20260507223554 | 14 | 51 | 3.2 | 3.2 | 0.00 | 0.46 | 0.46 | 39 | 999.2 |
| 20260507223051 | 14 | 318 | 3.2 | 3.2 | 0.00 | 0.46 | 0.46 | 38 | 999.4 |
| 20260507222548 | 15 | 334 | 3.2 | 4.8 | 0.00 | 0.46 | 0.46 | 37 | 999.1 |
| 20260507222045 | 15 | 4 | 3.2 | 3.2 | 0.00 | 0.46 | 0.46 | 36 | 999.0 |
| 20260507221541 | 15 | 33 | 1.6 | 3.2 | 0.00 | 0.46 | 0.46 | 36 | 998.9 |
| 20260507221038 | 15 | 10 | 3.2 | 3.2 | 0.00 | 0.46 | 0.46 | 37 | 999.0 |
| 20260507220535 | 15 | 299 | 3.2 | 4.8 | 0.00 | 0.46 | 0.46 | 38 | 998.9 |
| 20260507220033 | 15 | 9 | 1.6 | 1.6 | 0.00 | 0.46 | 0.46 | 37 | 998.7 |
| 20260507215529 | 15 | 323 | 6.4 | 6.4 | 0.00 | 0.46 | 0.46 | 38 | 998.9 |
| 20260507215027 | 15 | 294 | 4.8 | 4.8 | 0.00 | 0.46 | 0.46 | 38 | 998.8 |
| 20260507214524 | 15 | 43 | 1.6 | 1.6 | 0.00 | 0.46 | 0.46 | 38 | 998.9 |
| 20260507214020 | 14 | 41 | 1.6 | 1.6 | 0.00 | 0.46 | 0.46 | 40 | 998.9 |
| 20260507213516 | 14 | 46 | 3.2 | 3.2 | 0.00 | 0.46 | 0.46 | 40 | 998.7 |
| 20260507213013 | 15 | 4 | 3.2 | 3.2 | 0.00 | 0.46 | 0.46 | 38 | 998.9 |
| 20260507212509 | 15 | 37 | 1.6 | 1.6 | 0.00 | 0.46 | 0.46 | 40 | 999.0 |
| 20260507212006 | 15 | 311 | 4.8 | 4.8 | 0.00 | 0.46 | 0.46 | 38 | 999.0 |
| 20260507211503 | 15 | 22 | 1.6 | 1.6 | 0.00 | 0.46 | 0.46 | 39 | 998.7 |
| 20260507210959 | 15 | 50 | 3.2 | 4.8 | 0.00 | 0.46 | 0.46 | 40 | 998.8 |
| 20260507210456 | 15 | 48 | 0.0 | 1.6 | 0.00 | 0.46 | 0.46 | 38 | 998.6 |
| 20260507205952 | 15 | 37 | 3.2 | 3.2 | 0.00 | 0.46 | 0.46 | 38 | 998.5 |
| 20260507205449 | 16 | 271 | 8.0 | 9.7 | 0.00 | 0.46 | 0.46 | 36 | 998.6 |
| 20260507204940 | 15 | 25 | 3.2 | 3.2 | 0.00 | 0.46 | 0.46 | 40 | 998.2 |
| 20260507204436 | 16 | 299 | 3.2 | 6.4 | 0.00 | 0.46 | 0.46 | 38 | 998.6 |
| 20260507203934 | 15 | 8 | 3.2 | 3.2 | 0.00 | 0.46 | 0.46 | 43 | 998.4 |
| 20260507203432 | 15 | 300 | 6.4 | 6.4 | 0.00 | 0.46 | 0.46 | 40 | 998.4 |
| 20260507202928 | 16 | 290 | 6.4 | 6.4 | 0.00 | 0.46 | 0.46 | 39 | 998.3 |
| 20260507202425 | 16 | 295 | 4.8 | 4.8 | 0.00 | 0.46 | 0.46 | 38 | 998.1 |
| 20260507201921 | 16 | 297 | 6.4 | 6.4 | 0.00 | 0.46 | 0.46 | 37 | 998.3 |
| 20260507201416 | 16 | 281 | 8.0 | 11.3 | 0.00 | 0.46 | 0.46 | 37 | 998.4 |
| 20260507200913 | 17 | 301 | 6.4 | 9.7 | 0.00 | 0.46 | 0.46 | 37 | 998.4 |
| 20260507200408 | 16 | 279 | 9.7 | 11.3 | 0.00 | 0.46 | 0.46 | 37 | 998.4 |
| 20260507195904 | 17 | 268 | 8.0 | 9.7 | 0.00 | 0.46 | 0.46 | 38 | 998.3 |
| 20260507195402 | 16 | 304 | 9.7 | 11.3 | 0.00 | 0.46 | 0.46 | 38 | 998.3 |
| 20260507194859 | 16 | 265 | 8.0 | 9.7 | 0.00 | 0.46 | 0.46 | 36 | 998.4 |
| 20260507194355 | 16 | 285 | 3.2 | 6.4 | 0.00 | 0.46 | 0.46 | 39 | 998.4 |
| 20260507193852 | 16 | 292 | 6.4 | 9.7 | 0.00 | 0.46 | 0.46 | 41 | 998.3 |
| 20260507193349 | 17 | 330 | 3.2 | 3.2 | 0.00 | 0.46 | 0.46 | 40 | 998.3 |
| 20260507192845 | 16 | 326 | 4.8 | 6.4 | 0.00 | 0.46 | 0.46 | 40 | 998.6 |
| 20260507192342 | 17 | 273 | 9.7 | 12.9 | 0.00 | 0.46 | 0.46 | 42 | 998.2 |
| 20260507191838 | 16 | 311 | 6.4 | 6.4 | 0.00 | 0.46 | 0.46 | 47 | 998.4 |
| 20260507191334 | 16 | 293 | 8.0 | 9.7 | 0.00 | 0.46 | 0.46 | 47 | 998.2 |
| 20260507190832 | 15 | 294 | 3.2 | 4.8 | 0.00 | 0.46 | 0.46 | 50 | 998.5 |
| 20260507190330 | 16 | 20 | 4.8 | 9.7 | 0.00 | 0.46 | 0.46 | 49 | 998.6 |
| 20260507185829 | 16 | 308 | 4.8 | 6.4 | 0.00 | 0.46 | 0.46 | 49 | 998.6 |
| 20260507185325 | 15 | 282 | 6.4 | 6.4 | 0.00 | 0.46 | 0.46 | 54 | 998.5 |
| 20260507184822 | 14 | 283 | 6.4 | 6.4 | 0.00 | 0.46 | 0.46 | 55 | 998.6 |
| 20260507184320 | 15 | 23 | 1.6 | 3.2 | 0.00 | 0.46 | 0.46 | 55 | 998.7 |
| 20260507183817 | 15 | 303 | 6.4 | 6.4 | 0.00 | 0.46 | 0.46 | 56 | 998.7 |
| 20260507183314 | 15 | 298 | 9.7 | 14.5 | 0.00 | 0.46 | 0.46 | 55 | 998.7 |
| 20260507182811 | 16 | 0 | 6.4 | 9.7 | 0.00 | 0.46 | 0.46 | 51 | 998.6 |
| 20260507182307 | 15 | 56 | 3.2 | 4.8 | 0.00 | 0.46 | 0.46 | 52 | 998.5 |
| 20260507181803 | 14 | 310 | 4.8 | 4.8 | 0.00 | 0.46 | 0.46 | 54 | 998.8 |
| 20260507181259 | 14 | 301 | 4.8 | 6.4 | 0.00 | 0.46 | 0.46 | 56 | 998.6 |
| 20260507180756 | 15 | 353 | 3.2 | 3.2 | 0.00 | 0.46 | 0.46 | 55 | 998.5 |
| 20260507180253 | 15 | 77 | 3.2 | 4.8 | 0.00 | 0.46 | 0.46 | 54 | 998.7 |
| 20260507175748 | 15 | 265 | 6.4 | 6.4 | 0.00 | 0.46 | 0.46 | 54 | 998.8 |
| 20260507175246 | 15 | 278 | 4.8 | 4.8 | 0.00 | 0.46 | 0.46 | 54 | 998.8 |
| 20260507174743 | 15 | 334 | 4.8 | 6.4 | 0.00 | 0.46 | 0.46 | 55 | 998.6 |
| 20260507174241 | 16 | 277 | 3.2 | 4.8 | 0.00 | 0.46 | 0.46 | 53 | 998.9 |
| 20260507173738 | 15 | 351 | 3.2 | 4.8 | 0.00 | 0.46 | 0.46 | 55 | 998.9 |
| 20260507173235 | 15 | 315 | 4.8 | 4.8 | 0.00 | 0.46 | 0.46 | 55 | 998.9 |
| 20260507172731 | 15 | 34 | 1.6 | 1.6 | 0.00 | 0.46 | 0.46 | 55 | 998.8 |
| 20260507172229 | 15 | 323 | 3.2 | 3.2 | 0.00 | 0.46 | 0.46 | 52 | 998.7 |
| 20260507171728 | 16 | 292 | 3.2 | 3.2 | 0.00 | 0.46 | 0.46 | 54 | 998.8 |
| 20260507171226 | 16 | 100 | 1.6 | 1.6 | 0.00 | 0.46 | 0.46 | 60 | 998.9 |
| 20260507170723 | 15 | 280 | 4.8 | 4.8 | 0.00 | 0.46 | 0.46 | 54 | 999.1 |
| 20260507170220 | 15 | 298 | 3.2 | 4.8 | 0.00 | 0.46 | 0.46 | 56 | 999.2 |
| 20260507165715 | 15 | 302 | 6.4 | 6.4 | 0.00 | 0.46 | 0.46 | 54 | 999.2 |
| 20260507165212 | 16 | 286 | 8.0 | 11.3 | 0.00 | 0.46 | 0.46 | 54 | 999.0 |
| 20260507164708 | 17 | 279 | 6.4 | 6.4 | 0.00 | 0.46 | 0.46 | 51 | 999.1 |
| 20260507164206 | 16 | 272 | 3.2 | 4.8 | 0.00 | 0.46 | 0.46 | 58 | 999.0 |
| 20260507163702 | 15 | 274 | 6.4 | 6.4 | 0.00 | 0.46 | 0.46 | 51 | 999.2 |
| 20260507163200 | 15 | 307 | 4.8 | 4.8 | 0.00 | 0.46 | 0.46 | 54 | 999.2 |
| 20260507162656 | 15 | 316 | 3.2 | 3.2 | 0.00 | 0.46 | 0.46 | 56 | 999.4 |
| 20260507162152 | 15 | 359 | 3.2 | 3.2 | 0.00 | 0.46 | 0.46 | 54 | 999.4 |
| 20260507161648 | 15 | 36 | 1.6 | 1.6 | 0.00 | 0.46 | 0.46 | 52 | 999.3 |
| 20260507161145 | 14 | 288 | 4.8 | 4.8 | 0.00 | 0.46 | 0.46 | 53 | 999.6 |
| 20260507160641 | 15 | 348 | 3.2 | 3.2 | 0.00 | 0.46 | 0.46 | 55 | 999.5 |
| 20260507160138 | 15 | 285 | 8.0 | 9.7 | 0.00 | 0.46 | 0.46 | 52 | 999.5 |
| 20260507155634 | 16 | 341 | 3.2 | 3.2 | 0.00 | 0.46 | 0.46 | 54 | 999.7 |
| 20260507155130 | 15 | 335 | 3.2 | 3.2 | 0.00 | 0.46 | 0.46 | 55 | 999.7 |
| 20260507154627 | 15 | 19 | 1.6 | 3.2 | 0.00 | 0.46 | 0.46 | 54 | 999.9 |
| 20260507154124 | 15 | 200 | 3.2 | 3.2 | 0.00 | 0.46 | 0.46 | 55 | 999.9 |
| 20260507153615 | 14 | 25 | 1.6 | 1.6 | 0.00 | 0.46 | 0.46 | 56 | 999.9 |
| 20260507153111 | 16 | 323 | 3.2 | 4.8 | 0.00 | 0.46 | 0.46 | 55 | 999.8 |
| 20260507152607 | 15 | 30 | 1.6 | 1.6 | 0.00 | 0.46 | 0.46 | 57 | 1000.0 |
| 20260507152058 | 15 | 307 | 6.4 | 6.4 | 0.00 | 0.46 | 0.46 | 55 | 1000.1 |
| 20260507151554 | 15 | 280 | 6.4 | 6.4 | 0.00 | 0.46 | 0.46 | 54 | 999.9 |
| 20260507151052 | 15 | 298 | 6.4 | 6.4 | 0.00 | 0.46 | 0.46 | 57 | 1000.0 |
| 20260507150549 | 15 | 321 | 3.2 | 4.8 | 0.00 | 0.46 | 0.46 | 58 | 999.8 |
| 20260507150045 | 15 | 318 | 4.8 | 4.8 | 0.00 | 0.46 | 0.46 | 59 | 999.9 |
| 20260507145540 | 15 | 17 | 3.2 | 3.2 | 0.00 | 0.46 | 0.46 | 61 | 1000.1 |
| 20260507145038 | 14 | 31 | 1.6 | 3.2 | 0.00 | 0.46 | 0.46 | 62 | 1000.1 |
| 20260507144534 | 14 | 271 | 8.0 | 9.7 | 0.00 | 0.46 | 0.46 | 62 | 1000.2 |
| 20260507144032 | 13 | 76 | 0.0 | 0.0 | 0.00 | 0.46 | 0.46 | 63 | 1000.0 |
| 20260507143529 | 14 | 252 | 3.2 | 4.8 | 0.00 | 0.46 | 0.46 | 65 | 1000.5 |
| 20260507143027 | 13 | 286 | 4.8 | 6.4 | 0.00 | 0.46 | 0.46 | 66 | 1000.3 |
| 20260507142522 | 14 | 60 | 1.6 | 1.6 | 0.00 | 0.46 | 0.46 | 70 | 1000.5 |
| 20260507142019 | 13 | 351 | 3.2 | 3.2 | 0.00 | 0.46 | 0.46 | 71 | 1000.5 |
| 20260507141515 | 13 | 310 | 3.2 | 3.2 | 0.00 | 0.46 | 0.46 | 69 | 1000.4 |
| 20260507141012 | 13 | 29 | 1.6 | 3.2 | 0.00 | 0.46 | 0.46 | 72 | 1000.6 |
| 20260507140509 | 13 | 4 | 3.2 | 3.2 | 0.00 | 0.46 | 0.46 | 68 | 1000.8 |
| 20260507140007 | 13 | 319 | 3.2 | 3.2 | 0.00 | 0.46 | 0.46 | 73 | 1000.7 |
| 20260507135503 | 13 | 45 | 1.6 | 3.2 | 0.00 | 0.46 | 0.46 | 72 | 1000.8 |
| 20260507135000 | 12 | 12 | 1.6 | 1.6 | 0.00 | 0.46 | 0.46 | 69 | 1000.8 |
| 20260507134456 | 12 | 53 | 0.0 | 0.0 | 0.00 | 0.46 | 0.46 | 72 | 1000.7 |
| 20260507133953 | 12 | 36 | 1.6 | 1.6 | 0.00 | 0.46 | 0.46 | 73 | 1000.8 |
| 20260507133448 | 12 | 355 | 3.2 | 3.2 | 0.00 | 0.46 | 0.46 | 76 | 1000.7 |
| 20260507132947 | 12 | 58 | 0.0 | 1.6 | 0.00 | 0.46 | 0.46 | 76 | 1000.6 |
| 20260507132443 | 11 | 332 | 3.2 | 3.2 | 0.00 | 0.46 | 0.46 | 77 | 1000.5 |
| 20260507131939 | 11 | 2 | 3.2 | 3.2 | 0.00 | 0.46 | 0.46 | 75 | 1000.6 |
| 20260507131437 | 11 | 23 | 1.6 | 3.2 | 0.00 | 0.46 | 0.46 | 76 | 1000.7 |
| 20260507130934 | 11 | 351 | 3.2 | 3.2 | 0.00 | 0.46 | 0.46 | 76 | 1000.8 |
| 20260507130431 | 11 | 56 | 0.0 | 1.6 | 0.00 | 0.46 | 0.46 | 80 | 1000.7 |
| 20260507125929 | 11 | 8 | 1.6 | 3.2 | 0.00 | 0.46 | 0.46 | 81 | 1000.8 |
| 20260507125427 | 10 | 10 | 1.6 | 3.2 | 0.00 | 0.46 | 0.46 | 82 | 1000.9 |
| 20260507124924 | 10 | 54 | 0.0 | 0.0 | 0.00 | 0.46 | 0.46 | 85 | 1000.9 |
| 20260507124420 | 10 | 51 | 0.0 | 0.0 | 0.00 | 0.46 | 0.46 | 86 | 1000.9 |
| 20260507123919 | 10 | 69 | 0.0 | 0.0 | 0.00 | 0.46 | 0.46 | 80 | 1001.1 |
| 20260507123415 | 10 | 48 | 1.6 | 1.6 | 0.00 | 0.46 | 0.46 | 85 | 1000.9 |
| 20260507122912 | 9 | 57 | 1.6 | 3.2 | 0.00 | 0.46 | 0.46 | 85 | 1001.1 |
| 20260507122407 | 9 | 94 | 0.0 | 1.6 | 0.00 | 0.46 | 0.46 | 87 | 1001.0 |
| 20260507121904 | 8 | 38 | 1.6 | 1.6 | 0.00 | 0.46 | 0.46 | 88 | 1001.2 |
| 20260507121359 | 8 | 50 | 0.0 | 0.0 | 0.00 | 0.46 | 0.46 | 88 | 1001.0 |
| 20260507120856 | 8 | 69 | 0.0 | 0.0 | 0.00 | 0.46 | 0.46 | 89 | 1001.3 |
| 20260507120352 | 8 | 62 | 0.0 | 0.0 | 0.00 | 0.46 | 0.46 | 90 | 1001.2 |
| 20260507115849 | 8 | 56 | 0.0 | 0.0 | 0.00 | 0.46 | 0.46 | 92 | 1001.1 |
| 20260507115344 | 8 | 301 | 1.6 | 3.2 | 0.00 | 0.46 | 0.46 | 93 | 1000.9 |
| 20260507114840 | 7 | 35 | 0.0 | 0.0 | 0.00 | 0.46 | 0.46 | 93 | 1001.0 |
| 20260507114338 | 7 | 36 | 0.0 | 0.0 | 0.00 | 0.46 | 0.46 | 95 | 1001.0 |
| 20260507113835 | 7 | 37 | 0.0 | 0.0 | 0.00 | 0.46 | 0.46 | 95 | 1000.9 |
| 20260507113332 | 7 | 41 | 0.0 | 1.6 | 0.00 | 0.46 | 0.46 | 97 | 1001.3 |
| 20260507112829 | 7 | 42 | 0.0 | 0.0 | 0.00 | 0.46 | 0.46 | 96 | 1001.1 |
| 20260507112326 | 7 | 42 | 0.0 | 0.0 | 0.00 | 0.46 | 0.46 | 98 | 1001.2 |
| 20260507111824 | 6 | 42 | 0.0 | 0.0 | 0.00 | 0.46 | 0.46 | 98 | 1001.6 |
| 20260507111320 | 6 | 42 | 0.0 | 0.0 | 0.00 | 0.46 | 0.46 | 99 | 1001.2 |
| 20260507110817 | 6 | 42 | 0.0 | 0.0 | 0.18 | 0.46 | 0.46 | 98 | 1001.1 |
| 20260507110313 | 6 | 42 | 0.0 | 0.0 | 0.18 | 0.46 | 0.46 | 98 | 1001.3 |
| 20260507105810 | 7 | 42 | 0.0 | 0.0 | 0.00 | 0.43 | 0.43 | 99 | 1001.7 |
| 20260507105307 | 6 | 42 | 0.0 | 0.0 | 0.00 | 0.43 | 0.43 | 99 | 1001.1 |
| 20260507104803 | 6 | 42 | 0.0 | 0.0 | 0.00 | 0.43 | 0.43 | 99 | 1001.3 |
| 20260507104259 | 6 | 42 | 0.0 | 0.0 | 0.00 | 0.43 | 0.43 | 99 | 1001.2 |
| 20260507103755 | 6 | 41 | 0.0 | 0.0 | 0.00 | 0.43 | 0.43 | 99 | 1001.6 |
| 20260507103252 | 6 | 42 | 0.0 | 0.0 | 0.00 | 0.43 | 0.43 | 99 | 1001.1 |
| 20260507102748 | 6 | 42 | 0.0 | 0.0 | 0.00 | 0.43 | 0.43 | 99 | 1001.5 |
| 20260507102240 | 6 | 42 | 0.0 | 0.0 | 0.00 | 0.43 | 0.43 | 99 | 1001.3 |
| 20260507101736 | 6 | 41 | 0.0 | 0.0 | 0.00 | 0.43 | 0.43 | 99 | 1001.3 |
| 20260507101231 | 6 | 41 | 0.0 | 0.0 | 0.00 | 0.43 | 0.43 | 99 | 1001.6 |
| 20260507100728 | 6 | 41 | 0.0 | 1.6 | 0.00 | 0.43 | 0.43 | 99 | 1001.3 |
| 20260507100227 | 6 | 48 | 0.0 | 0.0 | 0.00 | 0.43 | 0.43 | 99 | 1001.0 |
| 20260507095724 | 6 | 49 | 0.0 | 0.0 | 0.00 | 0.43 | 0.43 | 99 | 1000.8 |
| 20260507095220 | 6 | 48 | 0.0 | 0.0 | 0.00 | 0.43 | 0.43 | 99 | 1000.8 |
| 20260507094718 | 6 | 32 | 1.6 | 1.6 | 0.00 | 0.43 | 0.43 | 99 | 1000.7 |
| 20260507094215 | 6 | 45 | 0.0 | 0.0 | 0.00 | 0.43 | 0.43 | 99 | 1000.1 |
| 20260507093711 | 6 | 46 | 0.0 | 0.0 | 0.00 | 0.43 | 0.43 | 99 | 1000.8 |
| 20260507093210 | 6 | 53 | 0.0 | 1.6 | 0.00 | 0.43 | 0.43 | 99 | 1000.6 |
| 20260507092707 | 6 | 54 | 0.0 | 0.0 | 0.00 | 0.43 | 0.43 | 99 | 1000.6 |
| 20260507092203 | 6 | 54 | 0.0 | 0.0 | 0.00 | 0.43 | 0.43 | 99 | 1000.6 |
| 20260507091700 | 6 | 53 | 0.0 | 0.0 | 0.00 | 0.43 | 0.43 | 99 | 1000.9 |
| 20260507091156 | 6 | 64 | 0.0 | 0.0 | 0.00 | 0.43 | 0.43 | 99 | 1000.9 |
| 20260507090652 | 6 | 64 | 0.0 | 0.0 | 0.00 | 0.43 | 0.43 | 99 | 1000.7 |
| 20260507090149 | 7 | 64 | 0.0 | 1.6 | 0.00 | 0.43 | 0.43 | 99 | 1000.6 |
| 20260507085646 | 7 | 64 | 0.0 | 0.0 | 0.00 | 0.43 | 0.43 | 99 | 1001.3 |
| 20260507085142 | 7 | 13 | 1.6 | 1.6 | 0.00 | 0.43 | 0.43 | 99 | 1001.2 |
| 20260507084639 | 7 | 39 | 1.6 | 1.6 | 0.00 | 0.43 | 0.43 | 99 | 1000.8 |
| 20260507084136 | 7 | 49 | 0.0 | 0.0 | 0.00 | 0.43 | 0.43 | 99 | 1000.8 |
| 20260507083633 | 7 | 57 | 0.0 | 0.0 | 0.00 | 0.43 | 0.43 | 99 | 1000.9 |
| 20260507083130 | 7 | 64 | 0.0 | 0.0 | 0.00 | 0.43 | 0.43 | 99 | 1000.9 |
| 20260507082625 | 7 | 50 | 1.6 | 1.6 | 0.00 | 0.43 | 0.43 | 99 | 1000.7 |
| 20260507082122 | 7 | 43 | 0.0 | 0.0 | 0.00 | 0.43 | 0.43 | 99 | 1000.5 |
| 20260507081619 | 7 | 42 | 0.0 | 0.0 | 0.00 | 0.43 | 0.43 | 99 | 1000.7 |
| 20260507081115 | 7 | 42 | 0.0 | 1.6 | 0.00 | 0.43 | 0.43 | 99 | 1000.8 |
| 20260507080612 | 7 | 42 | 0.0 | 1.6 | 0.00 | 0.43 | 0.43 | 99 | 1000.7 |
| 20260507080108 | 7 | 43 | 0.0 | 1.6 | 0.00 | 0.43 | 0.43 | 99 | 1000.6 |
| 20260507075603 | 7 | 16 | 1.6 | 1.6 | 0.00 | 0.43 | 0.43 | 99 | 1000.5 |
| 20260507075100 | 7 | 49 | 1.6 | 1.6 | 0.00 | 0.43 | 0.43 | 99 | 1000.6 |
| 20260507074556 | 7 | 62 | 0.0 | 1.6 | 0.00 | 0.43 | 0.43 | 99 | 1000.3 |
| 20260507074055 | 7 | 53 | 0.0 | 0.0 | 0.00 | 0.43 | 0.43 | 99 | 1000.6 |
| 20260507073550 | 7 | 350 | 3.2 | 3.2 | 0.00 | 0.43 | 0.43 | 99 | 1000.7 |
| 20260507073047 | 7 | 56 | 0.0 | 1.6 | 0.00 | 0.43 | 0.43 | 99 | 1000.7 |
| 20260507072545 | 7 | 57 | 0.0 | 0.0 | 0.00 | 0.43 | 0.43 | 99 | 1000.8 |
| 20260507072042 | 8 | 297 | 3.2 | 4.8 | 0.00 | 0.43 | 0.43 | 99 | 1000.7 |
| 20260507071539 | 8 | 46 | 0.0 | 0.0 | 0.00 | 0.43 | 0.43 | 99 | 1000.5 |
| 20260507071036 | 8 | 66 | 0.0 | 0.0 | 0.00 | 0.43 | 0.43 | 99 | 1000.2 |
| 20260507070533 | 8 | 78 | 0.0 | 0.0 | 0.00 | 0.43 | 0.43 | 99 | 1000.1 |
| 20260507070030 | 8 | 48 | 0.0 | 0.0 | 0.00 | 0.43 | 0.43 | 99 | 1000.1 |
| 20260507065526 | 8 | 48 | 0.0 | 0.0 | 0.00 | 0.43 | 0.43 | 99 | 1000.1 |
| 20260507065023 | 8 | 49 | 0.0 | 0.0 | 0.00 | 0.43 | 0.43 | 99 | 1000.1 |
| 20260507064521 | 8 | 45 | 1.6 | 1.6 | 0.00 | 0.43 | 0.43 | 99 | 1000.1 |
| 20260507064020 | 8 | 55 | 0.0 | 0.0 | 0.00 | 0.43 | 0.43 | 99 | 999.9 |
| 20260507063516 | 8 | 52 | 0.0 | 1.6 | 0.00 | 0.43 | 0.43 | 99 | 999.9 |
| 20260507063014 | 8 | 70 | 0.0 | 0.0 | 0.00 | 0.43 | 0.43 | 99 | 999.6 |
| 20260507062510 | 8 | 72 | 0.0 | 0.0 | 0.00 | 0.43 | 0.43 | 99 | 999.7 |
| 20260507062008 | 8 | 48 | 0.0 | 0.0 | 0.00 | 0.43 | 0.43 | 99 | 999.6 |
| 20260507061505 | 8 | 48 | 0.0 | 0.0 | 0.00 | 0.43 | 0.43 | 99 | 1000.0 |
| 20260507061003 | 8 | 80 | 0.0 | 0.0 | 0.00 | 0.43 | 0.43 | 99 | 999.9 |
| 20260507060500 | 8 | 52 | 0.0 | 0.0 | 0.00 | 0.43 | 0.43 | 99 | 999.5 |
| 20260507055956 | 8 | 45 | 0.0 | 0.0 | 0.00 | 0.43 | 0.43 | 99 | 999.5 |
| 20260507055452 | 8 | 45 | 0.0 | 0.0 | 0.00 | 0.43 | 0.43 | 99 | 999.6 |
| 20260507054949 | 8 | 45 | 0.0 | 1.6 | 0.00 | 0.43 | 0.43 | 99 | 999.6 |
| 20260507054445 | 8 | 48 | 0.0 | 1.6 | 0.00 | 0.43 | 0.43 | 99 | 999.3 |
| 20260507053942 | 8 | 74 | 1.6 | 1.6 | 0.00 | 0.43 | 0.43 | 99 | 999.4 |
| 20260507053440 | 8 | 62 | 0.0 | 0.0 | 0.00 | 0.43 | 0.43 | 99 | 999.6 |
| 20260507052938 | 8 | 49 | 1.6 | 1.6 | 0.00 | 0.43 | 0.43 | 99 | 999.6 |
| 20260507052436 | 8 | 47 | 3.2 | 4.8 | 0.00 | 0.43 | 0.43 | 99 | 999.5 |
| 20260507051933 | 8 | 70 | 3.2 | 3.2 | 0.00 | 0.43 | 0.43 | 99 | 999.5 |
| 20260507051430 | 9 | 88 | 1.6 | 1.6 | 0.00 | 0.43 | 0.43 | 99 | 999.8 |
| 20260507050927 | 9 | 64 | 1.6 | 1.6 | 0.00 | 0.43 | 0.43 | 99 | 999.8 |
| 20260507050423 | 9 | 76 | 1.6 | 1.6 | 0.00 | 0.43 | 0.43 | 99 | 999.6 |
| 20260507045920 | 9 | 60 | 0.0 | 1.6 | 0.00 | 0.43 | 0.43 | 99 | 1000.0 |
| 20260507045417 | 9 | 73 | 0.0 | 1.6 | 0.13 | 0.43 | 0.43 | 99 | 999.9 |
| 20260507044914 | 10 | 59 | 0.0 | 0.0 | 0.30 | 0.43 | 0.43 | 99 | 999.8 |
| 20260507044411 | 10 | 24 | 3.2 | 6.4 | 0.30 | 0.41 | 0.41 | 99 | 999.7 |
| 20260507043907 | 10 | 81 | 1.6 | 1.6 | 0.30 | 0.38 | 0.38 | 99 | 999.5 |
| 20260507043403 | 10 | 56 | 0.0 | 0.0 | 0.66 | 0.36 | 0.36 | 99 | 1000.0 |
| 20260507042859 | 10 | 68 | 1.6 | 1.6 | 1.19 | 0.33 | 0.33 | 99 | 1000.0 |
| 20260507042355 | 10 | 47 | 3.2 | 4.8 | 0.89 | 0.25 | 0.25 | 99 | 1000.0 |
| 20260507041846 | 10 | 52 | 1.6 | 1.6 | 0.18 | 0.13 | 0.13 | 99 | 1000.0 |
| 20260507041343 | 11 | 91 | 3.2 | 3.2 | 0.00 | 0.10 | 0.10 | 99 | 999.6 |
| 20260507040841 | 11 | 63 | 3.2 | 3.2 | 0.13 | 0.10 | 0.10 | 99 | 999.3 |
| 20260507040337 | 11 | 56 | 0.0 | 0.0 | 0.30 | 0.10 | 0.10 | 99 | 999.0 |
| 20260507035833 | 11 | 62 | 0.0 | 0.0 | 0.18 | 0.08 | 0.08 | 99 | 999.2 |
| 20260507035328 | 11 | 69 | 0.0 | 1.6 | 0.13 | 0.05 | 0.05 | 99 | 998.9 |
| 20260507034826 | 11 | 61 | 0.0 | 0.0 | 0.13 | 0.05 | 0.05 | 99 | 999.0 |
| 20260507034322 | 11 | 61 | 0.0 | 0.0 | 0.00 | 0.03 | 0.03 | 99 | 999.1 |
| 20260507033821 | 11 | 30 | 1.6 | 1.6 | 0.00 | 0.03 | 0.03 | 99 | 999.2 |
| 20260507033318 | 11 | 39 | 0.0 | 0.0 | 0.00 | 0.03 | 0.03 | 99 | 999.1 |
| 20260507032815 | 11 | 39 | 0.0 | 0.0 | 0.18 | 0.03 | 0.03 | 99 | 998.9 |
| 20260507032311 | 11 | 48 | 0.0 | 0.0 | 0.18 | 0.03 | 0.03 | 99 | 999.0 |
| 20260507031808 | 11 | 62 | 0.0 | 0.0 | 0.18 | 0.03 | 0.03 | 99 | 998.8 |
| 20260507031304 | 11 | 99 | 0.0 | 0.0 | 0.13 | 0.00 | 0.00 | 99 | 998.7 |
| 20260507030800 | 11 | 62 | 0.0 | 0.0 | 0.13 | 0.00 | 0.00 | 99 | 998.6 |
| 20260507030258 | 11 | 62 | 0.0 | 0.0 | 0.00 | 1.14 | 1.14 | 99 | 998.9 |
| 20260507025755 | 11 | 63 | 0.0 | 0.0 | 0.00 | 1.14 | 1.14 | 99 | 998.8 |